Time,TemperatureF,DewpointF,PressureIn,WindDirection,WindDirectionDegrees,WindSpeedMPH,WindSpeedGustMPH,Humidity,HourlyPrecipIn,Conditions,Clouds,dailyrainin,SoftwareType,DateUTC
2013-02-23 00:00:00,34.0,26.9,29.44,NNW,333,0.0,1.0,75,0.00,,---,0.00,VWS V14.00,2013-02-23 06:00:00,
2013-02-23 00:05:00,33.8,26.7,29.44,NNW,334,0.0,1.0,75,0.00,,---,0.00,VWS V14.00,2013-02-23 06:05:00,
2013-02-23 00:10:00,33.4,26.4,29.44,NNW,333,4.0,5.8,75,0.00,,---,0.00,VWS V14.00,2013-02-23 06:10:00,
2013-02-23 00:15:00,33.3,26.2,29.41,NNW,339,0.0,1.0,75,0.00,,---,0.00,VWS V14.00,2013-02-23 06:15:00,
2013-02-23 00:20:00,33.3,26.2,29.41,NNW,345,4.7,7.4,75,0.00,,---,0.00,VWS V14.00,2013-02-23 06:20:00,
2013-02-23 00:25:00,33.1,26.0,29.41,NNW,340,0.0,5.8,75,0.00,,---,0.00,VWS V14.00,2013-02-23 06:25:00,
2013-02-23 00:30:00,33.1,26.0,29.41,NW,319,0.0,5.0,75,0.00,,---,0.00,VWS V14.00,2013-02-23 06:30:00,
2013-02-23 00:35:00,32.7,25.7,29.41,North,353,0.0,6.6,75,0.00,,---,0.00,VWS V14.00,2013-02-23 06:35:00,
2013-02-23 00:40:00,32.5,25.5,29.41,NNW,340,0.0,1.0,75,0.00,,---,0.00,VWS V14.00,2013-02-23 06:40:00,
2013-02-23 00:45:00,32.5,25.5,29.41,North,353,0.0,1.0,75,0.00,,---,0.00,VWS V14.00,2013-02-23 06:45:00,
2013-02-23 00:50:00,32.4,25.6,29.41,NNW,343,0.0,1.0,76,0.00,,---,0.00,VWS V14.00,2013-02-23 06:50:00,
2013-02-23 00:55:00,32.4,25.6,29.41,NNW,343,4.0,5.8,76,0.00,,---,0.00,VWS V14.00,2013-02-23 06:55:00,
2013-02-23 01:00:00,32.2,25.5,29.41,NNW,343,0.0,1.0,76,0.00,,---,0.00,VWS V14.00,2013-02-23 07:00:00,
2013-02-23 01:05:00,32.2,25.5,29.41,NNW,348,0.0,1.0,76,0.00,,---,0.00,VWS V14.00,2013-02-23 07:05:00,
2013-02-23 01:10:00,31.6,25.0,29.41,NNW,341,0.0,1.0,76,0.00,,---,0.00,VWS V14.00,2013-02-23 07:10:00,
2013-02-23 01:15:00,31.6,25.0,29.41,NNW,341,0.0,1.0,76,0.00,,---,0.00,VWS V14.00,2013-02-23 07:15:00,
2013-02-23 01:20:00,31.3,24.6,29.41,North,357,0.0,1.0,76,0.00,,---,0.00,VWS V14.00,2013-02-23 07:20:00,
2013-02-23 01:25:00,31.1,24.4,29.41,North,353,0.0,1.0,76,0.00,,---,0.00,VWS V14.00,2013-02-23 07:25:00,
2013-02-23 01:30:00,31.1,24.4,29.41,North,353,0.0,1.0,76,0.00,,---,0.00,VWS V14.00,2013-02-23 07:30:00,
2013-02-23 01:35:00,31.1,24.4,29.41,North,2,0.0,1.0,76,0.00,,---,0.00,VWS V14.00,2013-02-23 07:35:00,
2013-02-23 01:40:00,30.9,24.6,29.41,North,357,0.0,1.0,77,0.00,,---,0.00,VWS V14.00,2013-02-23 07:40:00,
2013-02-23 01:45:00,30.9,24.6,29.41,NNW,336,0.0,1.0,77,0.00,,---,0.00,VWS V14.00,2013-02-23 07:45:00,
2013-02-23 01:50:00,30.7,24.4,29.41,NNW,336,0.0,1.0,77,0.00,,---,0.00,VWS V14.00,2013-02-23 07:50:00,
2013-02-23 01:55:00,30.6,24.2,29.41,North,350,0.0,1.0,77,0.00,,---,0.00,VWS V14.00,2013-02-23 07:55:00,
2013-02-23 02:00:00,30.4,24.0,29.41,North,350,0.0,1.0,77,0.00,,---,0.00,VWS V14.00,2013-02-23 08:00:00,
2013-02-23 02:05:00,30.2,23.9,29.41,North,350,0.0,1.0,77,0.00,,---,0.00,VWS V14.00,2013-02-23 08:05:00,
2013-02-23 02:10:00,30.2,23.9,29.41,North,350,0.0,1.0,77,0.00,,---,0.00,VWS V14.00,2013-02-23 08:10:00,
2013-02-23 02:15:00,30.0,24.0,29.41,North,350,0.0,1.0,78,0.00,,---,0.00,VWS V14.00,2013-02-23 08:15:00,
2013-02-23 02:20:00,29.8,23.8,29.41,North,350,0.0,1.0,78,0.00,,---,0.00,VWS V14.00,2013-02-23 08:20:00,
2013-02-23 02:25:00,29.8,23.8,29.41,North,350,0.0,1.0,78,0.00,,---,0.00,VWS V14.00,2013-02-23 08:25:00,
2013-02-23 02:30:00,29.7,23.6,29.41,NNW,333,0.0,1.0,78,0.00,,---,0.00,VWS V14.00,2013-02-23 08:30:00,
2013-02-23 02:35:00,29.7,23.6,29.41,North,357,0.0,1.0,78,0.00,,---,0.00,VWS V14.00,2013-02-23 08:35:00,
2013-02-23 02:40:00,29.7,23.6,29.41,North,357,0.0,1.0,78,0.00,,---,0.00,VWS V14.00,2013-02-23 08:40:00,
2013-02-23 02:45:00,29.5,23.5,29.41,North,357,0.0,1.0,78,0.00,,---,0.00,VWS V14.00,2013-02-23 08:45:00,
2013-02-23 02:50:00,29.5,23.5,29.41,North,357,0.0,1.0,78,0.00,,---,0.00,VWS V14.00,2013-02-23 08:50:00,
2013-02-23 02:55:00,29.3,23.6,29.41,North,357,0.0,1.0,79,0.00,,---,0.00,VWS V14.00,2013-02-23 08:55:00,
2013-02-23 03:00:00,29.3,23.6,29.41,NNW,328,0.0,1.0,79,0.00,,---,0.00,VWS V14.00,2013-02-23 09:00:00,
2013-02-23 03:05:00,29.3,23.6,29.41,NNW,328,0.0,1.0,79,0.00,,---,0.00,VWS V14.00,2013-02-23 09:05:00,
2013-02-23 03:10:00,29.3,23.6,29.41,North,9,0.0,1.0,79,0.00,,---,0.00,VWS V14.00,2013-02-23 09:10:00,
2013-02-23 03:15:00,29.5,23.8,29.41,North,3,0.0,1.0,79,0.00,,---,0.00,VWS V14.00,2013-02-23 09:15:00,
2013-02-23 03:20:00,29.5,23.8,29.41,North,357,0.0,1.0,79,0.00,,---,0.00,VWS V14.00,2013-02-23 09:20:00,
2013-02-23 03:25:00,29.5,24.1,29.41,North,357,5.4,7.4,80,0.00,,---,0.00,VWS V14.00,2013-02-23 09:25:00,
2013-02-23 03:30:00,29.5,24.1,29.41,North,1,4.0,5.8,80,0.00,,---,0.00,VWS V14.00,2013-02-23 09:30:00,
2013-02-23 03:35:00,29.5,24.1,29.38,North,2,4.0,5.8,80,0.00,,---,0.00,VWS V14.00,2013-02-23 09:35:00,
2013-02-23 03:40:00,29.3,23.9,29.38,North,353,0.0,1.0,80,0.00,,---,0.00,VWS V14.00,2013-02-23 09:40:00,
2013-02-23 03:45:00,28.9,23.6,29.38,North,353,0.0,1.0,80,0.00,,---,0.00,VWS V14.00,2013-02-23 09:45:00,
2013-02-23 03:50:00,28.8,23.4,29.38,North,353,0.0,1.0,80,0.00,,---,0.00,VWS V14.00,2013-02-23 09:50:00,
2013-02-23 03:55:00,28.8,23.4,29.41,North,353,4.7,6.6,80,0.00,,---,0.00,VWS V14.00,2013-02-23 09:55:00,
2013-02-23 04:00:00,28.8,23.4,29.41,North,0,3.4,5.0,80,0.00,,---,0.00,VWS V14.00,2013-02-23 10:00:00,
2013-02-23 04:05:00,28.8,23.4,29.41,North,357,0.0,1.0,80,0.00,,---,0.00,VWS V14.00,2013-02-23 10:05:00,
2013-02-23 04:10:00,28.6,23.2,29.41,North,357,0.0,1.0,80,0.00,,---,0.00,VWS V14.00,2013-02-23 10:10:00,
2013-02-23 04:15:00,28.4,23.3,29.41,North,0,0.0,1.0,81,0.00,,---,0.00,VWS V14.00,2013-02-23 10:15:00,
2013-02-23 04:20:00,28.4,23.3,29.41,North,0,0.0,1.0,81,0.00,,---,0.00,VWS V14.00,2013-02-23 10:20:00,
2013-02-23 04:25:00,28.4,23.3,29.41,North,6,4.7,6.6,81,0.00,,---,0.00,VWS V14.00,2013-02-23 10:25:00,
2013-02-23 04:31:00,28.6,23.5,29.41,North,357,5.4,7.4,81,0.00,,---,0.00,VWS V14.00,2013-02-23 10:31:00,
2013-02-23 04:35:00,28.6,23.5,29.41,North,357,4.7,6.6,81,0.00,,---,0.00,VWS V14.00,2013-02-23 10:35:00,
2013-02-23 04:41:00,28.6,23.5,29.41,North,357,5.4,7.4,81,0.00,,---,0.00,VWS V14.00,2013-02-23 10:41:00,
2013-02-23 04:46:00,28.6,23.5,29.41,North,9,4.0,7.4,81,0.00,,---,0.00,VWS V14.00,2013-02-23 10:46:00,
2013-02-23 04:51:00,28.6,23.5,29.41,North,350,4.7,8.2,81,0.00,,---,0.00,VWS V14.00,2013-02-23 10:51:00,
2013-02-23 04:56:00,28.8,23.7,29.41,NNW,331,4.0,7.4,81,0.00,,---,0.00,VWS V14.00,2013-02-23 10:56:00,
2013-02-23 05:01:00,28.6,23.5,29.41,NNW,329,0.0,1.0,81,0.00,,---,0.00,VWS V14.00,2013-02-23 11:01:00,
2013-02-23 05:06:00,28.6,23.5,29.41,North,1,0.0,1.0,81,0.00,,---,0.00,VWS V14.00,2013-02-23 11:06:00,
2013-02-23 05:11:00,28.4,23.6,29.41,North,0,0.0,1.0,82,0.00,,---,0.00,VWS V14.00,2013-02-23 11:11:00,
2013-02-23 05:16:00,28.4,23.6,29.41,North,0,0.0,1.0,82,0.00,,---,0.00,VWS V14.00,2013-02-23 11:16:00,
2013-02-23 05:21:00,28.2,23.4,29.41,North,357,0.0,1.0,82,0.00,,---,0.00,VWS V14.00,2013-02-23 11:21:00,
2013-02-23 05:26:00,28.0,23.3,29.41,NNW,330,4.7,6.6,82,0.00,,---,0.00,VWS V14.00,2013-02-23 11:26:00,
2013-02-23 05:31:00,28.0,23.3,29.41,NNW,331,0.0,1.0,82,0.00,,---,0.00,VWS V14.00,2013-02-23 11:31:00,
2013-02-23 05:36:00,27.9,23.1,29.41,NNW,331,0.0,1.0,82,0.00,,---,0.00,VWS V14.00,2013-02-23 11:36:00,
2013-02-23 05:41:00,27.9,23.1,29.41,NNW,340,0.0,1.0,82,0.00,,---,0.00,VWS V14.00,2013-02-23 11:41:00,
2013-02-23 05:46:00,27.9,23.1,29.41,NNE,12,4.7,8.2,82,0.00,,---,0.00,VWS V14.00,2013-02-23 11:46:00,
2013-02-23 05:51:00,28.0,23.3,29.41,North,5,4.7,6.6,82,0.00,,---,0.00,VWS V14.00,2013-02-23 11:51:00,
2013-02-23 05:56:00,28.2,23.4,29.41,NNE,12,5.4,7.4,82,0.00,,---,0.00,VWS V14.00,2013-02-23 11:56:00,
2013-02-23 06:01:00,28.4,23.6,29.41,North,11,5.4,8.2,82,0.00,,---,0.00,VWS V14.00,2013-02-23 12:01:00,
2013-02-23 06:06:00,28.4,23.6,29.41,NNE,15,5.4,8.2,82,0.00,,---,0.00,VWS V14.00,2013-02-23 12:06:00,
2013-02-23 06:11:00,28.4,23.6,29.41,NNE,19,6.0,8.2,82,0.00,,---,0.00,VWS V14.00,2013-02-23 12:11:00,
2013-02-23 06:16:00,28.4,23.6,29.41,NNE,23,5.4,8.2,82,0.00,,---,0.00,VWS V14.00,2013-02-23 12:16:00,
2013-02-23 06:21:00,28.2,23.4,29.41,NNE,30,5.4,7.4,82,0.00,,---,0.00,VWS V14.00,2013-02-23 12:21:00,
2013-02-23 06:26:00,28.2,23.4,29.41,NNE,23,5.4,7.4,82,0.00,,---,0.00,VWS V14.00,2013-02-23 12:26:00,
2013-02-23 06:31:00,28.0,23.3,29.41,NNE,27,6.0,8.2,82,0.00,,---,0.00,VWS V14.00,2013-02-23 12:31:00,
2013-02-23 06:36:00,28.0,23.3,29.41,NNE,21,5.4,8.2,82,0.00,,---,0.00,VWS V14.00,2013-02-23 12:36:00,
2013-02-23 06:41:00,28.0,23.3,29.41,NNE,15,4.7,8.2,82,0.00,,---,0.00,VWS V14.00,2013-02-23 12:41:00,
2013-02-23 06:46:00,28.0,23.3,29.41,NNE,21,5.4,7.4,82,0.00,,---,0.00,VWS V14.00,2013-02-23 12:46:00,
2013-02-23 06:51:00,28.2,23.4,29.41,North,4,6.0,8.2,82,0.00,,---,0.00,VWS V14.00,2013-02-23 12:51:00,
2013-02-23 06:56:00,28.4,23.6,29.41,NNE,20,5.4,7.4,82,0.00,,---,0.00,VWS V14.00,2013-02-23 12:56:00,
2013-02-23 07:01:00,28.6,23.5,29.41,NNE,18,7.4,9.9,81,0.00,,---,0.00,VWS V14.00,2013-02-23 13:01:00,
2013-02-23 07:06:00,28.8,23.7,29.41,NNE,19,6.0,8.2,81,0.00,,---,0.00,VWS V14.00,2013-02-23 13:06:00,
2013-02-23 07:11:00,28.9,23.9,29.41,NNE,13,5.4,8.2,81,0.00,,---,0.00,VWS V14.00,2013-02-23 13:11:00,
2013-02-23 07:16:00,29.1,24.0,29.41,NNE,17,6.0,8.2,81,0.00,,---,0.00,VWS V14.00,2013-02-23 13:16:00,
2013-02-23 07:21:00,29.1,23.7,29.41,NNE,23,7.4,9.9,80,0.00,,---,0.00,VWS V14.00,2013-02-23 13:21:00,
2013-02-23 07:26:00,29.1,23.7,29.41,NNE,23,5.4,7.4,80,0.00,,---,0.00,VWS V14.00,2013-02-23 13:26:00,
2013-02-23 07:31:00,28.9,23.6,29.41,NNE,18,6.7,9.1,80,0.00,,---,0.00,VWS V14.00,2013-02-23 13:31:00,
2013-02-23 07:36:00,28.9,23.6,29.41,NNE,16,7.4,9.9,80,0.00,,---,0.00,VWS V14.00,2013-02-23 13:36:00,
2013-02-23 07:41:00,29.1,23.4,29.41,NNE,18,4.0,5.8,79,0.00,,---,0.00,VWS V14.00,2013-02-23 13:41:00,
2013-02-23 07:46:00,29.1,23.4,29.41,NNE,18,0.0,1.0,79,0.00,,---,0.00,VWS V14.00,2013-02-23 13:46:00,
2013-02-23 07:51:00,28.9,23.3,29.41,NNE,18,4.7,6.6,79,0.00,,---,0.00,VWS V14.00,2013-02-23 13:51:00,
2013-02-23 07:56:00,29.3,23.6,29.41,North,357,4.7,7.4,79,0.00,,---,0.00,VWS V14.00,2013-02-23 13:56:00,
2013-02-23 08:01:00,29.5,23.8,29.41,NNE,17,8.1,10.7,79,0.00,,---,0.00,VWS V14.00,2013-02-23 14:01:00,
2013-02-23 08:06:00,29.7,24.0,29.41,North,357,8.7,11.5,79,0.00,,---,0.00,VWS V14.00,2013-02-23 14:06:00,
2013-02-23 08:11:00,30.0,24.3,29.41,NNE,23,8.1,10.7,79,0.00,,---,0.00,VWS V14.00,2013-02-23 14:11:00,
2013-02-23 08:16:00,30.4,24.4,29.41,NNE,26,8.7,11.5,78,0.00,,---,0.00,VWS V14.00,2013-02-23 14:16:00,
2013-02-23 08:21:00,30.9,24.9,29.41,NNE,28,11.4,14.7,78,0.00,,---,0.00,VWS V14.00,2013-02-23 14:21:00,
2013-02-23 08:26:00,31.3,24.9,29.41,NE,41,11.4,14.7,77,0.00,,---,0.00,VWS V14.00,2013-02-23 14:26:00,
2013-02-23 08:31:00,31.5,24.8,29.41,NNE,24,8.1,11.5,76,0.00,,---,0.00,VWS V14.00,2013-02-23 14:31:00,
2013-02-23 08:36:00,31.8,25.1,29.41,NNE,20,9.4,12.3,76,0.00,,---,0.00,VWS V14.00,2013-02-23 14:36:00,
2013-02-23 08:41:00,32.0,25.0,29.41,NNE,24,8.7,11.5,75,0.00,,---,0.00,VWS V14.00,2013-02-23 14:41:00,
2013-02-23 08:46:00,32.2,24.8,29.41,NE,45,4.7,6.6,74,0.00,,---,0.00,VWS V14.00,2013-02-23 14:46:00,
2013-02-23 08:51:00,32.5,24.9,29.41,NE,34,8.1,12.3,73,0.00,,---,0.00,VWS V14.00,2013-02-23 14:51:00,
2013-02-23 08:56:00,32.7,24.7,29.41,NNE,19,7.4,9.9,72,0.00,,---,0.00,VWS V14.00,2013-02-23 14:56:00,
2013-02-23 09:01:00,33.1,24.4,29.41,NE,34,4.7,10.7,70,0.00,,---,0.00,VWS V14.00,2013-02-23 15:01:00,
2013-02-23 09:06:00,33.6,24.9,29.41,NE,56,5.4,10.7,70,0.00,,---,0.00,VWS V14.00,2013-02-23 15:06:00,
2013-02-23 09:11:00,33.6,23.5,29.41,NNE,31,9.4,12.3,66,0.00,,---,0.00,VWS V14.00,2013-02-23 15:11:00,
2013-02-23 09:16:00,33.6,22.8,29.41,NE,43,6.0,8.2,64,0.00,,---,0.00,VWS V14.00,2013-02-23 15:16:00,
2013-02-23 09:21:00,33.6,22.4,29.41,NE,56,6.0,8.2,63,0.00,,---,0.00,VWS V14.00,2013-02-23 15:21:00,
2013-02-23 09:26:00,34.0,22.7,29.41,NE,50,9.4,12.3,63,0.00,,---,0.00,VWS V14.00,2013-02-23 15:26:00,
2013-02-23 09:31:00,34.2,22.5,29.41,East,81,12.1,15.5,62,0.00,,---,0.00,VWS V14.00,2013-02-23 15:31:00,
2013-02-23 09:36:00,34.3,22.7,29.41,ENE,77,5.4,7.4,62,0.00,,---,0.00,VWS V14.00,2013-02-23 15:36:00,
2013-02-23 09:41:00,34.7,23.4,29.41,NE,37,11.4,14.7,63,0.00,,---,0.00,VWS V14.00,2013-02-23 15:41:00,
2013-02-23 09:46:00,35.1,23.8,29.41,NE,34,8.7,13.9,63,0.00,,---,0.00,VWS V14.00,2013-02-23 15:46:00,
2013-02-23 09:51:00,35.2,23.9,29.41,ENE,76,5.4,12.3,63,0.00,,---,0.00,VWS V14.00,2013-02-23 15:51:00,
2013-02-23 09:56:00,35.6,23.5,29.41,ENE,77,5.4,8.2,61,0.00,,---,0.00,VWS V14.00,2013-02-23 15:56:00,
2013-02-23 10:01:00,35.6,23.1,29.41,ENE,73,4.7,13.1,60,0.00,,---,0.00,VWS V14.00,2013-02-23 16:01:00,
2013-02-23 10:06:00,35.8,22.9,29.41,ENE,71,6.7,11.5,59,0.00,,---,0.00,VWS V14.00,2013-02-23 16:06:00,
2013-02-23 10:11:00,36.0,22.2,29.41,ENE,63,4.7,10.7,57,0.00,,---,0.00,VWS V14.00,2013-02-23 16:11:00,
2013-02-23 10:16:00,36.3,22.1,29.41,ENE,57,4.0,11.5,56,0.00,,---,0.00,VWS V14.00,2013-02-23 16:16:00,
2013-02-23 10:21:00,36.9,22.6,29.41,ENE,64,6.0,10.7,56,0.00,,---,0.00,VWS V14.00,2013-02-23 16:21:00,
2013-02-23 10:26:00,37.0,22.8,29.41,ENE,72,9.4,12.3,56,0.00,,---,0.00,VWS V14.00,2013-02-23 16:26:00,
2013-02-23 10:31:00,37.4,23.1,29.41,ENE,62,7.4,11.5,56,0.00,,---,0.00,VWS V14.00,2013-02-23 16:31:00,
2013-02-23 10:36:00,37.8,23.5,29.41,NE,55,4.0,6.6,56,0.00,,---,0.00,VWS V14.00,2013-02-23 16:36:00,
2013-02-23 10:41:00,37.6,22.9,29.41,East,97,4.7,6.6,55,0.00,,---,0.00,VWS V14.00,2013-02-23 16:41:00,
2013-02-23 10:46:00,37.6,23.3,29.38,NW,313,5.4,7.4,56,0.00,,---,0.00,VWS V14.00,2013-02-23 16:46:00,
2013-02-23 10:51:00,37.8,23.5,29.41,NE,34,3.4,12.3,56,0.00,,---,0.00,VWS V14.00,2013-02-23 16:51:00,
2013-02-23 10:56:00,38.1,23.8,29.41,NE,39,6.0,8.2,56,0.00,,---,0.00,VWS V14.00,2013-02-23 16:56:00,
2013-02-23 11:01:00,38.5,24.2,29.41,NNE,25,7.4,10.7,56,0.00,,---,0.00,VWS V14.00,2013-02-23 17:01:00,
2013-02-23 11:06:00,38.5,24.2,29.41,NNE,19,8.7,11.5,56,0.00,,---,0.00,VWS V14.00,2013-02-23 17:06:00,
2013-02-23 11:11:00,38.5,24.2,29.41,NNE,28,0.0,1.0,56,0.00,,---,0.00,VWS V14.00,2013-02-23 17:11:00,
2013-02-23 11:16:00,39.2,24.4,29.41,North,1,6.0,8.2,55,0.00,,---,0.00,VWS V14.00,2013-02-23 17:16:00,
2013-02-23 11:21:00,39.4,24.6,29.41,NW,321,9.4,12.3,55,0.00,,---,0.00,VWS V14.00,2013-02-23 17:21:00,
2013-02-23 11:26:00,39.2,24.4,29.41,North,357,7.4,9.9,55,0.00,,---,0.00,VWS V14.00,2013-02-23 17:26:00,
2013-02-23 11:31:00,39.4,24.6,29.41,North,350,0.0,5.8,55,0.00,,---,0.00,VWS V14.00,2013-02-23 17:31:00,
2013-02-23 11:36:00,39.4,24.1,29.41,SSW,196,4.7,6.6,54,0.00,,---,0.00,VWS V14.00,2013-02-23 17:36:00,
2013-02-23 11:41:00,39.4,24.1,29.41,SSE,153,3.4,7.4,54,0.00,,---,0.00,VWS V14.00,2013-02-23 17:41:00,
2013-02-23 11:46:00,40.5,24.7,29.41,South,177,4.7,6.6,53,0.00,,---,0.00,VWS V14.00,2013-02-23 17:46:00,
2013-02-23 11:51:00,40.6,24.9,29.38,West,270,6.0,10.7,53,0.00,,---,0.00,VWS V14.00,2013-02-23 17:51:00,
2013-02-23 11:56:00,40.5,24.7,29.38,WNW,285,4.0,11.5,53,0.00,,---,0.00,VWS V14.00,2013-02-23 17:56:00,
2013-02-23 12:01:00,41.0,25.2,29.38,NNW,336,0.0,6.6,53,0.00,,---,0.00,VWS V14.00,2013-02-23 18:01:00,
2013-02-23 12:06:00,41.5,25.7,29.38,West,270,5.4,11.5,53,0.00,,---,0.00,VWS V14.00,2013-02-23 18:06:00,
2013-02-23 12:11:00,41.2,24.9,29.38,West,275,5.4,9.9,52,0.00,,---,0.00,VWS V14.00,2013-02-23 18:11:00,
2013-02-23 12:16:00,41.4,24.6,29.38,West,259,5.4,8.2,51,0.00,,---,0.00,VWS V14.00,2013-02-23 18:16:00,
2013-02-23 12:21:00,41.9,24.6,29.38,WNW,296,0.0,1.0,50,0.00,,---,0.00,VWS V14.00,2013-02-23 18:21:00,
2013-02-23 12:26:00,42.3,25.4,29.38,West,262,4.7,6.6,51,0.00,,---,0.00,VWS V14.00,2013-02-23 18:26:00,
2013-02-23 12:31:00,42.1,24.8,29.38,North,6,6.0,11.5,50,0.00,,---,0.00,VWS V14.00,2013-02-23 18:31:00,
2013-02-23 12:36:00,42.6,24.3,29.35,ENE,65,5.4,7.4,48,0.00,,---,0.00,VWS V14.00,2013-02-23 18:36:00,
2013-02-23 12:41:00,42.4,24.1,29.35,NNW,332,6.0,8.2,48,0.00,,---,0.00,VWS V14.00,2013-02-23 18:41:00,
2013-02-23 12:46:00,42.6,24.3,29.35,NW,325,4.7,6.6,48,0.00,,---,0.00,VWS V14.00,2013-02-23 18:46:00,
2013-02-23 12:51:00,42.6,24.3,29.35,NNE,27,12.4,15.9,48,0.00,,---,0.00,VWS V14.00,2013-02-23 18:51:00,
2013-02-23 12:56:00,42.8,24.0,29.35,North,349,5.4,7.4,47,0.00,,---,0.00,VWS V14.00,2013-02-23 18:56:00,
2013-02-23 13:01:00,43.3,23.4,29.35,NE,49,3.4,6.6,45,0.00,,---,0.00,VWS V14.00,2013-02-23 19:01:00,
2013-02-23 13:06:00,43.3,24.0,29.35,NW,314,5.4,14.7,46,0.00,,---,0.00,VWS V14.00,2013-02-23 19:06:00,
2013-02-23 13:11:00,43.5,24.1,29.35,North,353,4.7,11.5,46,0.00,,---,0.00,VWS V14.00,2013-02-23 19:11:00,
2013-02-23 13:16:00,44.1,25.1,29.32,NW,306,7.4,9.9,47,0.00,,---,0.00,VWS V14.00,2013-02-23 19:16:00,
2013-02-23 13:21:00,43.9,24.5,29.32,NW,316,6.0,8.2,46,0.00,,---,0.00,VWS V14.00,2013-02-23 19:21:00,
2013-02-23 13:26:00,43.5,23.6,29.32,WNW,286,7.4,9.9,45,0.00,,---,0.00,VWS V14.00,2013-02-23 19:26:00,
2013-02-23 13:31:00,44.2,24.8,29.32,North,7,8.7,11.5,46,0.00,,---,0.00,VWS V14.00,2013-02-23 19:31:00,
2013-02-23 13:36:00,45.0,24.9,29.35,NE,41,4.0,6.6,45,0.00,,---,0.00,VWS V14.00,2013-02-23 19:36:00,
2013-02-23 13:41:00,45.1,25.1,29.35,North,0,5.4,11.5,45,0.00,,---,0.00,VWS V14.00,2013-02-23 19:41:00,
2013-02-23 13:46:00,45.0,24.4,29.35,NW,313,4.7,6.6,44,0.00,,---,0.00,VWS V14.00,2013-02-23 19:46:00,
2013-02-23 13:51:00,44.8,24.2,29.35,NW,323,4.0,14.7,44,0.00,,---,0.00,VWS V14.00,2013-02-23 19:51:00,
2013-02-23 13:56:00,44.8,24.2,29.35,NNW,340,7.4,9.9,44,0.00,,---,0.00,VWS V14.00,2013-02-23 19:56:00,
2013-02-23 14:01:00,45.1,24.5,29.35,WNW,292,0.0,7.4,44,0.00,,---,0.00,VWS V14.00,2013-02-23 20:01:00,
2013-02-23 14:06:00,45.7,25.0,29.32,NNE,28,8.1,10.7,44,0.00,,---,0.00,VWS V14.00,2013-02-23 20:06:00,
2013-02-23 14:11:00,45.9,25.2,29.32,WSW,240,0.0,1.0,44,0.00,,---,0.00,VWS V14.00,2013-02-23 20:11:00,
2013-02-23 14:16:00,45.7,24.5,29.32,NNW,333,8.7,11.5,43,0.00,,---,0.00,VWS V14.00,2013-02-23 20:16:00,
2013-02-23 14:21:00,45.9,24.6,29.32,NNE,18,5.4,7.4,43,0.00,,---,0.00,VWS V14.00,2013-02-23 20:21:00,
2013-02-23 14:26:00,46.0,24.8,29.32,NNW,338,4.0,5.8,43,0.00,,---,0.00,VWS V14.00,2013-02-23 20:26:00,
2013-02-23 14:31:00,46.2,25.5,29.32,North,353,5.4,7.4,44,0.00,,---,0.00,VWS V14.00,2013-02-23 20:31:00,
2013-02-23 14:36:00,46.2,25.5,29.32,North,357,8.7,13.1,44,0.00,,---,0.00,VWS V14.00,2013-02-23 20:36:00,
2013-02-23 14:41:00,46.2,25.0,29.32,WNW,294,5.4,7.4,43,0.00,,---,0.00,VWS V14.00,2013-02-23 20:41:00,
2013-02-23 14:46:00,46.6,25.3,29.32,SW,232,3.4,6.6,43,0.00,,---,0.00,VWS V14.00,2013-02-23 20:46:00,
2013-02-23 14:51:00,47.1,25.8,29.32,NNW,345,9.4,15.9,43,0.00,,---,0.00,VWS V14.00,2013-02-23 20:51:00,
2013-02-23 14:56:00,46.6,25.3,29.32,WNW,284,4.7,6.6,43,0.00,,---,0.00,VWS V14.00,2013-02-23 20:56:00,
2013-02-23 15:01:00,46.6,24.7,29.32,NW,320,8.1,12.3,42,0.00,,---,0.00,VWS V14.00,2013-02-23 21:01:00,
2013-02-23 15:06:00,46.4,24.6,29.32,North,353,4.7,6.6,42,0.00,,---,0.00,VWS V14.00,2013-02-23 21:06:00,
2013-02-23 15:11:00,46.6,24.7,29.32,WNW,291,4.7,6.6,42,0.00,,---,0.00,VWS V14.00,2013-02-23 21:11:00,
2013-02-23 15:16:00,46.2,25.0,29.32,NW,320,0.0,1.0,43,0.00,,---,0.00,VWS V14.00,2013-02-23 21:16:00,
2013-02-23 15:21:00,46.9,25.1,29.32,NNW,348,5.4,7.4,42,0.00,,---,0.00,VWS V14.00,2013-02-23 21:21:00,
2013-02-23 15:26:00,46.9,25.1,29.32,NNW,333,4.0,5.8,42,0.00,,---,0.00,VWS V14.00,2013-02-23 21:26:00,
2013-02-23 15:31:00,46.9,25.1,29.32,North,353,6.7,12.3,42,0.00,,---,0.00,VWS V14.00,2013-02-23 21:31:00,
2013-02-23 15:36:00,47.1,25.2,29.32,WNW,294,5.4,7.4,42,0.00,,---,0.00,VWS V14.00,2013-02-23 21:36:00,
2013-02-23 15:41:00,47.1,25.2,29.35,NNW,344,8.1,10.7,42,0.00,,---,0.00,VWS V14.00,2013-02-23 21:41:00,
2013-02-23 15:46:00,46.6,24.7,29.35,NNW,346,5.4,8.2,42,0.00,,---,0.00,VWS V14.00,2013-02-23 21:46:00,
2013-02-23 15:51:00,46.6,24.7,29.32,North,357,9.4,12.3,42,0.00,,---,0.00,VWS V14.00,2013-02-23 21:51:00,
2013-02-23 15:56:00,46.6,24.7,29.32,NNW,341,8.1,10.7,42,0.00,,---,0.00,VWS V14.00,2013-02-23 21:56:00,
2013-02-23 16:01:00,46.4,25.1,29.32,WNW,299,0.0,5.0,43,0.00,,---,0.00,VWS V14.00,2013-02-23 22:01:00,
2013-02-23 16:06:00,46.4,25.1,29.35,NW,325,6.0,8.2,43,0.00,,---,0.00,VWS V14.00,2013-02-23 22:06:00,
2013-02-23 16:11:00,46.0,24.8,29.35,West,273,6.0,8.2,43,0.00,,---,0.00,VWS V14.00,2013-02-23 22:11:00,
2013-02-23 16:16:00,45.5,24.3,29.35,West,267,5.4,7.4,43,0.00,,---,0.00,VWS V14.00,2013-02-23 22:16:00,
2013-02-23 16:21:00,45.5,24.3,29.35,North,357,8.7,11.5,43,0.00,,---,0.00,VWS V14.00,2013-02-23 22:21:00,
2013-02-23 16:26:00,45.5,24.3,29.32,West,278,6.0,8.2,43,0.00,,---,0.00,VWS V14.00,2013-02-23 22:26:00,
2013-02-23 16:31:00,45.1,24.0,29.32,West,277,8.1,10.7,43,0.00,,---,0.00,VWS V14.00,2013-02-23 22:31:00,
2013-02-23 16:36:00,45.1,24.5,29.32,West,259,6.7,9.1,44,0.00,,---,0.00,VWS V14.00,2013-02-23 22:36:00,
2013-02-23 16:41:00,45.0,24.4,29.32,WNW,282,5.4,11.5,44,0.00,,---,0.00,VWS V14.00,2013-02-23 22:41:00,
2013-02-23 16:46:00,44.8,24.2,29.32,NW,305,4.7,6.6,44,0.00,,---,0.00,VWS V14.00,2013-02-23 22:46:00,
2013-02-23 16:51:00,44.4,23.9,29.32,WNW,287,3.4,6.6,44,0.00,,---,0.00,VWS V14.00,2013-02-23 22:51:00,
2013-02-23 16:56:00,44.1,24.1,29.32,West,280,5.4,7.4,45,0.00,,---,0.00,VWS V14.00,2013-02-23 22:56:00,
2013-02-23 17:01:00,44.1,24.1,29.32,WNW,298,5.4,9.9,45,0.00,,---,0.00,VWS V14.00,2013-02-23 23:01:00,
2013-02-23 17:06:00,43.7,23.2,29.32,NNW,331,8.7,11.5,44,0.00,,---,0.00,VWS V14.00,2013-02-23 23:06:00,
2013-02-23 17:11:00,43.5,23.6,29.32,WNW,299,4.0,5.8,45,0.00,,---,0.00,VWS V14.00,2013-02-23 23:11:00,
2013-02-23 17:16:00,43.3,23.4,29.32,WNW,290,4.7,7.4,45,0.00,,---,0.00,VWS V14.00,2013-02-23 23:16:00,
2013-02-23 17:21:00,43.0,23.1,29.32,WNW,303,4.7,6.6,45,0.00,,---,0.00,VWS V14.00,2013-02-23 23:21:00,
2013-02-23 17:26:00,42.4,23.6,29.32,WNW,292,0.0,1.0,47,0.00,,---,0.00,VWS V14.00,2013-02-23 23:26:00,
2013-02-23 17:31:00,42.1,23.3,29.32,West,279,3.4,5.8,47,0.00,,---,0.00,VWS V14.00,2013-02-23 23:31:00,
2013-02-23 17:36:00,41.5,23.3,29.32,WNW,283,0.0,1.0,48,0.00,,---,0.00,VWS V14.00,2013-02-23 23:36:00,
2013-02-23 17:41:00,41.2,23.0,29.32,NW,317,0.0,1.0,48,0.00,,---,0.00,VWS V14.00,2013-02-23 23:41:00,
2013-02-23 17:46:00,40.6,23.0,29.32,NW,315,0.0,1.0,49,0.00,,---,0.00,VWS V14.00,2013-02-23 23:46:00,
2013-02-23 17:51:00,40.6,23.5,29.32,NW,324,5.4,7.4,50,0.00,,---,0.00,VWS V14.00,2013-02-23 23:51:00,
2013-02-23 17:56:00,39.9,23.3,29.35,WNW,284,0.0,1.0,51,0.00,,---,0.00,VWS V14.00,2013-02-23 23:56:00,
2013-02-23 18:01:00,39.4,23.2,29.35,WNW,284,0.0,1.0,52,0.00,,---,0.00,VWS V14.00,2013-02-24 00:01:00,
2013-02-23 18:06:00,39.4,23.2,29.35,NW,314,4.7,6.6,52,0.00,,---,0.00,VWS V14.00,2013-02-24 00:06:00,
2013-02-23 18:11:00,39.0,23.4,29.35,NW,307,0.0,1.0,53,0.00,,---,0.00,VWS V14.00,2013-02-24 00:11:00,
2013-02-23 18:16:00,38.8,23.2,29.35,NW,307,0.0,1.0,53,0.00,,---,0.00,VWS V14.00,2013-02-24 00:16:00,
2013-02-23 18:21:00,38.8,23.2,29.35,WNW,291,0.0,1.0,53,0.00,,---,0.00,VWS V14.00,2013-02-24 00:21:00,
2013-02-23 18:26:00,38.8,23.6,29.35,WNW,290,4.7,6.6,54,0.00,,---,0.00,VWS V14.00,2013-02-24 00:26:00,
2013-02-23 18:31:00,39.0,23.4,29.35,WNW,290,3.4,5.0,53,0.00,,---,0.00,VWS V14.00,2013-02-24 00:31:00,
2013-02-23 18:36:00,38.8,23.2,29.35,NW,313,4.0,5.8,53,0.00,,---,0.00,VWS V14.00,2013-02-24 00:36:00,
2013-02-23 18:41:00,39.0,23.8,29.35,WNW,286,4.7,6.6,54,0.00,,---,0.00,VWS V14.00,2013-02-24 00:41:00,
2013-02-23 18:46:00,39.0,23.4,29.35,WNW,287,3.4,5.0,53,0.00,,---,0.00,VWS V14.00,2013-02-24 00:46:00,
2013-02-23 18:51:00,38.8,23.2,29.35,WNW,289,4.7,6.6,53,0.00,,---,0.00,VWS V14.00,2013-02-24 00:51:00,
2013-02-23 18:56:00,38.7,23.0,29.35,WNW,297,4.0,5.8,53,0.00,,---,0.00,VWS V14.00,2013-02-24 00:56:00,
2013-02-23 19:01:00,38.3,22.7,29.35,NW,307,0.0,5.8,53,0.00,,---,0.00,VWS V14.00,2013-02-24 01:01:00,
2013-02-23 19:06:00,37.9,22.8,29.35,NW,315,0.0,1.0,54,0.00,,---,0.00,VWS V14.00,2013-02-24 01:06:00,
2013-02-23 19:11:00,37.8,22.6,29.35,NNW,329,3.4,5.0,54,0.00,,---,0.00,VWS V14.00,2013-02-24 01:11:00,
2013-02-23 19:16:00,37.8,22.6,29.35,WNW,289,4.0,5.8,54,0.00,,---,0.00,VWS V14.00,2013-02-24 01:16:00,
2013-02-23 19:21:00,37.6,22.5,29.35,NW,308,0.0,8.2,54,0.00,,---,0.00,VWS V14.00,2013-02-24 01:21:00,
2013-02-23 19:26:00,37.0,22.4,29.35,NW,308,3.4,5.0,55,0.00,,---,0.00,VWS V14.00,2013-02-24 01:26:00,
2013-02-23 19:31:00,36.9,22.2,29.35,NW,307,5.4,7.4,55,0.00,,---,0.00,VWS V14.00,2013-02-24 01:31:00,
2013-02-23 19:36:00,36.9,22.6,29.38,WNW,298,4.7,7.4,56,0.00,,---,0.00,VWS V14.00,2013-02-24 01:36:00,
2013-02-23 19:41:00,37.0,22.4,29.38,West,281,4.7,6.6,55,0.00,,---,0.00,VWS V14.00,2013-02-24 01:41:00,
2013-02-23 19:46:00,37.0,22.4,29.38,NW,311,3.4,5.0,55,0.00,,---,0.00,VWS V14.00,2013-02-24 01:46:00,
2013-02-23 19:51:00,36.7,22.0,29.38,NW,324,3.4,7.4,55,0.00,,---,0.00,VWS V14.00,2013-02-24 01:51:00,
2013-02-23 19:56:00,36.5,21.9,29.38,NW,312,0.0,1.0,55,0.00,,---,0.00,VWS V14.00,2013-02-24 01:56:00,
2013-02-23 20:01:00,36.0,21.4,29.38,NW,312,0.0,1.0,55,0.00,,---,0.00,VWS V14.00,2013-02-24 02:01:00,
2013-02-23 20:06:00,35.4,21.3,29.38,NW,312,0.0,1.0,56,0.00,,---,0.00,VWS V14.00,2013-02-24 02:06:00,
2013-02-23 20:11:00,34.9,20.8,29.35,NW,312,0.0,1.0,56,0.00,,---,0.00,VWS V14.00,2013-02-24 02:11:00,
2013-02-23 20:16:00,34.5,21.3,29.35,NW,308,0.0,1.0,58,0.00,,---,0.00,VWS V14.00,2013-02-24 02:16:00,
2013-02-23 20:21:00,34.5,21.3,29.35,NW,312,0.0,1.0,58,0.00,,---,0.00,VWS V14.00,2013-02-24 02:21:00,
2013-02-23 20:26:00,34.3,21.1,29.35,NW,312,0.0,1.0,58,0.00,,---,0.00,VWS V14.00,2013-02-24 02:26:00,
2013-02-23 20:31:00,34.0,20.8,29.35,NW,312,0.0,1.0,58,0.00,,---,0.00,VWS V14.00,2013-02-24 02:31:00,
2013-02-23 20:36:00,33.6,20.8,29.35,NW,312,0.0,1.0,59,0.00,,---,0.00,VWS V14.00,2013-02-24 02:36:00,
2013-02-23 20:41:00,33.4,21.1,29.35,NW,312,0.0,1.0,60,0.00,,---,0.00,VWS V14.00,2013-02-24 02:41:00,
2013-02-23 20:46:00,33.3,20.9,29.38,NW,307,3.4,5.0,60,0.00,,---,0.00,VWS V14.00,2013-02-24 02:46:00,
2013-02-23 20:51:00,33.8,21.8,29.38,WNW,294,4.0,5.8,61,0.00,,---,0.00,VWS V14.00,2013-02-24 02:51:00,
2013-02-23 20:56:00,33.8,21.8,29.38,NW,312,0.0,1.0,61,0.00,,---,0.00,VWS V14.00,2013-02-24 02:56:00,
2013-02-23 21:01:00,33.6,21.6,29.38,NW,326,4.7,6.6,61,0.00,,---,0.00,VWS V14.00,2013-02-24 03:01:00,
2013-02-23 21:06:00,33.4,21.8,29.38,NW,311,3.4,6.6,62,0.00,,---,0.00,VWS V14.00,2013-02-24 03:06:00,
2013-02-23 21:11:00,33.6,22.0,29.38,NW,311,0.0,1.0,62,0.00,,---,0.00,VWS V14.00,2013-02-24 03:11:00,
2013-02-23 21:16:00,33.6,22.0,29.38,NW,312,0.0,1.0,62,0.00,,---,0.00,VWS V14.00,2013-02-24 03:16:00,
2013-02-23 21:21:00,33.6,22.0,29.38,NW,315,0.0,1.0,62,0.00,,---,0.00,VWS V14.00,2013-02-24 03:21:00,
2013-02-23 21:26:00,33.4,21.8,29.38,NW,314,0.0,6.6,62,0.00,,---,0.00,VWS V14.00,2013-02-24 03:26:00,
2013-02-23 21:31:00,33.3,21.7,29.38,NW,314,0.0,1.0,62,0.00,,---,0.00,VWS V14.00,2013-02-24 03:31:00,
2013-02-23 21:36:00,33.3,21.7,29.38,NW,314,0.0,1.0,62,0.00,,---,0.00,VWS V14.00,2013-02-24 03:36:00,
2013-02-23 21:41:00,33.3,21.7,29.38,NW,314,0.0,1.0,62,0.00,,---,0.00,VWS V14.00,2013-02-24 03:41:00,
2013-02-23 21:46:00,32.9,21.3,29.38,NW,314,0.0,1.0,62,0.00,,---,0.00,VWS V14.00,2013-02-24 03:46:00,
2013-02-23 21:51:00,32.5,21.0,29.38,NW,314,0.0,1.0,62,0.00,,---,0.00,VWS V14.00,2013-02-24 03:51:00,
2013-02-23 21:56:00,32.4,21.2,29.38,NW,314,0.0,1.0,63,0.00,,---,0.00,VWS V14.00,2013-02-24 03:56:00,
2013-02-23 22:01:00,32.5,21.4,29.38,NW,314,0.0,1.0,63,0.00,,---,0.00,VWS V14.00,2013-02-24 04:01:00,
2013-02-23 22:06:00,32.7,21.5,29.38,North,0,5.4,7.4,63,0.00,,---,0.00,VWS V14.00,2013-02-24 04:06:00,
2013-02-23 22:11:00,32.9,22.1,29.38,North,353,4.7,6.6,64,0.00,,---,0.00,VWS V14.00,2013-02-24 04:11:00,
2013-02-23 22:17:00,33.1,22.2,29.38,North,4,3.4,5.0,64,0.00,,---,0.00,VWS V14.00,2013-02-24 04:17:00,
2013-02-23 22:22:00,33.1,22.2,29.38,North,353,7.4,9.9,64,0.00,,---,0.00,VWS V14.00,2013-02-24 04:22:00,
2013-02-23 22:27:00,32.9,22.1,29.38,NNW,329,0.0,1.0,64,0.00,,---,0.00,VWS V14.00,2013-02-24 04:27:00,
2013-02-23 22:32:00,32.7,21.9,29.38,West,277,3.4,5.0,64,0.00,,---,0.00,VWS V14.00,2013-02-24 04:32:00,
2013-02-23 22:37:00,32.5,21.7,29.38,NW,313,4.7,6.6,64,0.00,,---,0.00,VWS V14.00,2013-02-24 04:37:00,
2013-02-23 22:41:00,32.5,22.1,29.38,North,357,5.4,7.4,65,0.00,,---,0.00,VWS V14.00,2013-02-24 04:41:00,
2013-02-23 22:47:00,32.5,22.1,29.38,North,357,0.0,1.0,65,0.00,,---,0.00,VWS V14.00,2013-02-24 04:47:00,
2013-02-23 22:52:00,32.2,21.4,29.38,North,357,0.0,1.0,64,0.00,,---,0.00,VWS V14.00,2013-02-24 04:52:00,
2013-02-23 22:57:00,32.0,21.2,29.38,North,0,5.4,9.1,64,0.00,,---,0.00,VWS V14.00,2013-02-24 04:57:00,
2013-02-23 23:00:00,32.0,21.6,29.38,North,357,5.4,8.2,65,0.00,,---,0.00,VWS V14.00,2013-02-24 05:00:00,
2013-02-23 23:05:00,32.0,21.6,29.38,North,4,0.0,1.0,65,0.00,,---,0.00,VWS V14.00,2013-02-24 05:05:00,
2013-02-23 23:10:00,31.1,20.4,29.38,North,4,0.0,1.0,64,0.00,,---,0.00,VWS V14.00,2013-02-24 05:10:00,
2013-02-23 23:15:00,30.2,19.9,29.38,North,4,0.0,1.0,65,0.00,,---,0.00,VWS V14.00,2013-02-24 05:15:00,
2013-02-23 23:20:00,30.2,19.9,29.38,North,4,0.0,1.0,65,0.00,,---,0.00,VWS V14.00,2013-02-24 05:20:00,
2013-02-23 23:25:00,30.0,20.0,29.38,North,4,0.0,1.0,66,0.00,,---,0.00,VWS V14.00,2013-02-24 05:25:00,
2013-02-23 23:30:00,29.8,19.9,29.38,North,4,0.0,1.0,66,0.00,,---,0.00,VWS V14.00,2013-02-24 05:30:00,
2013-02-23 23:35:00,29.7,19.7,29.38,North,4,0.0,1.0,66,0.00,,---,0.00,VWS V14.00,2013-02-24 05:35:00,
2013-02-23 23:40:00,29.5,19.9,29.38,North,4,0.0,1.0,67,0.00,,---,0.00,VWS V14.00,2013-02-24 05:40:00,
2013-02-23 23:45:00,29.7,20.1,29.38,North,4,0.0,1.0,67,0.00,,---,0.00,VWS V14.00,2013-02-24 05:45:00,
2013-02-23 23:50:00,29.8,20.2,29.38,North,4,0.0,1.0,67,0.00,,---,0.00,VWS V14.00,2013-02-24 05:50:00,
2013-02-23 23:55:00,29.8,20.6,29.38,North,4,0.0,1.0,68,0.00,,---,0.00,VWS V14.00,2013-02-24 05:55:00,